Location: *
(47.2997°S, 47.7000°E)
Time: 01:02:07
(UTC+00:00)

Daily predictions for brighter satellites

Satellite Brightness Start Highest point End
(mag) Time Altitude Azimuth Time Altitude Azimuth Time Altitude Azimuth
CZ-2C R/B 4.4 00:15:10 19° SSW 00:15:10 19° SSW 00:16:37 10° SSW
Cosmos 2360 Rocket 4.0 00:09:17 16° NNE 00:12:29 26° ENE 00:17:08 10° SE
Cosmos 2322 Rocket 2.9 00:12:04 45° NE 00:12:50 48° ENE 00:18:17 10° SE
ISS -1.0 00:19:44 20° ESE 00:19:44 20° ESE 00:20:56 10° ESE
Cosmos 1891 Rocket 4.4 00:18:33 69° SW 00:18:33 69° SW 00:24:09 10° S
CZ-4C R/B 3.8 00:14:40 27° N 00:18:28 44° ENE 00:25:09 10° SE
Cosmos 1980 Rocket 3.0 00:20:26 41° SSW 00:20:26 41° SSW 00:24:52 10° SSE
SL-08 R/B 3.7 00:17:54 10° SSE 00:22:17 61° E 00:22:17 61° E
ERS-2 4.4 00:18:50 10° SSE 00:20:12 21° SSE 00:20:12 21° SSE
SL-16 R/B 2.8 00:18:43 10° S 00:24:15 51° SW 00:24:15 51° SW
Lacrosse 4 Rocket 3.3 00:25:38 17° S 00:27:59 28° SE 00:31:33 10° ENE
Cosmos 1733 Rocket 3.6 00:29:44 56° SSE 00:29:44 56° SSE 00:33:23 10° SSE
Meteor 1-5 Rocket 4.0 00:31:01 80° SSW 00:31:01 80° SSW 00:36:12 10° S
Cosmos 773 Rocket 4.0 00:32:51 73° SSW 00:32:51 73° SSW 00:37:54 10° SSE
Meteor 1-28 Rocket 4.3 00:31:34 10° SSE 00:34:40 44° ESE 00:34:40 44° ESE
BREEZE-M DEB (TANK) 4.3 00:37:59 29° ESE 00:37:59 29° ESE 00:40:11 10° ESE
CZ-4B R/B 3.2 00:38:14 76° ESE 00:38:14 76° ESE 00:42:38 10° S
Okean O Rocket 4.0 00:37:33 10° ENE 00:41:08 24° ESE 00:44:46 10° S
CZ-4B R/B 4.4 00:39:54 10° SE 00:41:57 15° E 00:44:01 10° NE
STARLINK-1128 4.5 00:43:11 45° S 00:43:11 45° S 00:46:50 10° ESE
USA 215 3.3 00:37:07 10° NNE 00:43:33 54° NW 00:44:13 52° WNW
Meteor 1-23 Rocket 4.3 00:39:29 10° S 00:45:11 76° ESE 00:50:48 10° NNE
ATLAS 2AS CENTAUR R/B 4.0 00:44:19 20° SW 00:46:02 22° SSW 00:50:56 10° SSE
STARLINK-1113 4.4 00:47:58 45° S 00:47:58 45° S 00:51:48 10° ESE
Cosmos 1375 Rocket 4.4 00:43:37 10° SW 00:49:59 90° NW 00:56:18 10° NNE
NOSS 3-1 (C) 4.5 00:45:57 10° SW 00:52:26 44° SE 00:57:57 10° ENE
H-2A R/B 4.4 00:55:41 17° SSW 00:55:41 17° SSW 00:56:37 10° SSW
STARLINK-1119 4.3 00:52:44 44° SSW 00:52:44 44° SSW 00:56:46 10° ESE
Cosmos 1464 Rocket 4.3 00:52:47 44° WSW 00:52:55 44° WSW 00:59:01 10° S
Cosmos 1536 3.3 00:57:40 50° SSW 00:57:40 50° SSW 01:00:54 10° S
STARLINK-1114 4.3 00:57:32 43° SSW 00:57:43 43° SSW 01:01:47 10° ESE
Cosmos 1743 4.1 00:54:33 13° NNE 00:57:48 40° E 01:01:32 10° SSE
Cosmos 1066 Rocket 4.1 00:52:25 10° S 00:58:00 87° ESE 01:03:40 10° N
SL-8 R/B 4.2 00:57:45 45° N 00:58:37 51° NNE 01:03:21 10° ESE
STARLINK-1131 4.4 01:00:10 40° N 01:00:10 40° N 01:03:11 10° NE
STARLINK-1075 4.5 00:59:22 31° SSE 00:59:22 31° SSE 01:02:03 10° ESE
STARLINK-1093 4.5 00:59:50 31° SSE 00:59:50 31° SSE 01:02:29 10° ESE
Landsat 5 3.7 00:55:33 10° SSE 00:59:59 70° ENE 01:01:46 34° N
STARLINK-1074 4.5 01:00:16 31° SSE 01:00:16 31° SSE 01:02:55 10° ESE
STARLINK-1087 4.5 01:00:39 32° SSE 01:00:39 32° SSE 01:03:24 10° ESE
STARLINK-1088 4.4 01:01:05 32° SSE 01:01:05 32° SSE 01:03:51 10° ESE
STARLINK-1115 4.4 01:01:34 32° SSE 01:01:34 32° SSE 01:04:17 10° ESE
STARLINK-1076 4.4 01:01:59 32° SSE 01:01:59 32° SSE 01:04:44 10° ESE
STARLINK-1092 4.4 01:02:26 32° SSE 01:02:26 32° SSE 01:05:12 10° ESE
STARLINK-1130 (DARKSAT) 4.4 01:02:18 40° SSW 01:02:43 42° S 01:06:46 10° ESE
STARLINK-1080 4.4 01:02:49 32° SSE 01:02:49 32° SSE 01:05:41 10° ESE
STARLINK-1090 4.4 01:03:15 32° SSE 01:03:15 32° SSE 01:06:08 10° ESE
STARLINK-1089 4.4 01:03:41 32° SSE 01:03:41 32° SSE 01:06:34 10° ESE
STARLINK-1190 4.3 01:04:57 40° N 01:04:57 40° N 01:08:06 10° NE
STARLINK-1107 4.3 01:04:07 33° SSE 01:04:07 33° SSE 01:07:02 10° ESE
H-2A R/B 2.1 01:02:54 10° S 01:07:30 70° WSW 01:08:34 50° NW
STARLINK-1084 4.4 01:07:06 38° SW 01:07:44 41° S 01:11:46 10° ESE
ALOS 2.1 01:03:56 10° N 01:08:39 79° WNW 01:13:26 10° SSW
Cosmos 1092 Rocket 3.9 01:04:13 10° SSW 01:10:29 65° W 01:16:45 10° N
Cosmos 1666 3.2 01:11:53 44° SW 01:11:53 44° SW 01:15:00 10° S
Molniya-2 4.5 01:09:53 20° SW 01:12:36 90° NW 01:18:57 10° NE
STARLINK-1098 4.5 01:11:53 35° SW 01:12:45 40° S 01:16:46 10° ESE
Cosmos 2219 Rocket 4.1 01:10:07 10° NNE 01:14:52 29° ENE 01:19:39 10° SE
Cosmos 1184 Rocket 2.9 01:16:20 64° SSW 01:16:20 64° SSW 01:19:21 10° S
CZ-4C R/B 3.2 01:13:24 10° S 01:16:49 55° SW 01:16:49 55° SW
Cosmos 1437 Rocket 2.7 01:14:27 10° SSW 01:18:28 87° W 01:22:29 10° N
Lacrosse 5 3.3 01:21:23 21° NNW 01:21:23 21° NNW 01:23:49 10° N
ERBS 4.0 01:19:34 21° N 01:21:00 29° NE 01:24:01 10° ESE
Cosmos 1674 Rocket 4.3 01:17:20 10° SSW 01:20:41 35° WSW 01:20:41 35° WSW
ATLAS CENTAUR R/B 1.4 01:22:42 48° W 01:23:21 54° SW 01:27:32 10° SSE
Cosmos 923 Rocket 3.9 01:22:22 19° NNW 01:26:12 84° WSW 01:31:34 10° SSE
STARLINK-67 4.2 01:26:06 24° NNE 01:26:28 25° NE 01:28:44 10° E
Cosmos 1844 Rocket 2.6 01:20:59 10° SSW 01:26:39 85° WNW 01:32:16 10° NNE
Cosmos 158 Rocket 4.4 01:22:25 10° N 01:27:15 58° ENE 01:32:06 10° SSE
SJ-12 4.0 01:23:57 10° N 01:27:58 54° W 01:32:04 10° SSW
Cosmos 1634 Rocket 3.9 01:22:14 10° NNW 01:28:28 71° W 01:34:52 10° S
Cosmos 2026 Rocket 4.0 01:23:14 10° SSW 01:29:38 64° W 01:35:52 10° N
Cosmos 1975 3.6 01:27:42 10° N 01:31:45 56° E 01:35:52 10° SSE
Cosmos 1655 Rocket 4.4 01:26:58 10° S 01:33:26 69° E 01:39:50 10° NNE
Cosmos 1782 Rocket 3.7 01:29:06 10° N 01:33:31 80° E 01:38:03 10° SSE
NOAA 6 4.1 01:28:50 10° NNE 01:34:02 88° ESE 01:39:20 10° SSW
Cosmos 1689 Rocket 3.9 01:33:00 10° SSE 01:35:51 34° E 01:38:40 10° NNE
EXPRESS MD2 3.9 01:35:58 34° WNW 01:36:55 40° NNW 01:42:28 10° NE
CZ-4B DEB 4.2 01:36:49 10° N 01:42:20 60° WNW 01:47:56 10° SSW
Cosmos 2142 Rocket 4.4 01:36:46 10° NNW 01:42:57 73° W 01:49:12 10° S
SL-16 R/B 3.0 01:41:54 24° W 01:44:24 35° SW 01:49:38 10° SSE
Cosmos 1680 Rocket 3.5 01:40:20 10° NNW 01:45:41 76° WSW 01:51:07 10° SSE
Cosmos 405 Rocket 3.7 01:46:17 27° W 01:47:01 29° WSW 01:50:39 10° S
STARLINK-1228 4.3 01:47:00 16° NNW 01:48:50 31° NE 01:51:29 10° ESE
STARLINK-1094 4.4 01:47:55 16° SW 01:51:01 48° SSE 01:55:07 10° E
STARLINK-1209 4.2 01:49:18 15° NNW 01:51:19 33° NE 01:54:06 10° ESE
Cosmos 2333 Rocket 2.9 01:45:49 10° N 01:51:25 57° ENE 01:57:07 10° SE
H-2A R/B 3.2 01:47:35 10° NNE 01:51:31 66° ESE 01:55:28 10° S
COBE Rocket 4.2 01:46:40 10° S 01:51:46 51° WSW 01:56:46 10° NW
Cosmos 1544 3.4 01:50:33 10° N 01:54:16 73° E 01:58:04 10° SSE
ISS -2.8 01:52:42 22° WSW 01:54:30 40° S 01:57:49 10° ESE
SAR-Lupe-4 4.2 01:51:23 10° S 01:54:47 36° WSW 01:56:54 19° NW
ERS-2 4.5 01:54:35 10° SW 01:54:47 10° SW 01:54:47 10° SW
STARLINK-1117 4.4 01:52:43 15° SW 01:56:03 49° SSE 02:00:09 10° E
Cosmos 2360 Rocket 2.3 01:51:07 13° NW 01:56:06 56° WSW 02:01:47 10° SSE
Cosmos 2322 Rocket 3.0 01:53:55 19° W 01:57:04 33° SW 02:02:12 10° SSE
FENGYUN 3A 4.3 01:53:51 10° NNW 01:58:36 31° W 02:03:25 10° SSW
Cosmos 1908 Rocket 4.3 01:57:21 15° NW 02:00:27 32° WSW 02:04:29 10° S
STARLINK-1078 4.3 01:57:30 14° WSW 02:01:03 51° SSE 02:05:09 10° E
Cosmos 1025 Rocket 4.0 01:57:51 10° S 02:02:12 52° ESE 02:06:31 10° NNE
USA 229 DEB 3.6 01:56:11 10° SW 02:03:11 85° NW 02:09:45 10° NE
USA 229 3.6 01:56:18 10° SW 02:03:17 85° NW 02:09:52 10° NE
Cosmos 1980 Rocket 4.2 02:02:28 10° WSW 02:04:52 13° SSW 02:07:17 10° S
STARLINK-1108 4.3 02:02:15 12° WSW 02:06:01 53° SSE 02:10:09 10° E
Cosmos 1378 3.8 02:03:00 10° SSW 02:06:26 33° W 02:09:49 10° NNW
Lacrosse 4 Rocket 1.9 02:02:57 10° SW 02:06:43 36° WNW 02:10:29 10° N
SL-16 R/B 4.4 02:04:52 10° SSW 02:07:06 12° SW 02:09:20 10° WSW
CZ-4C R/B 3.0 01:59:55 12° WNW 02:07:06 57° SW 02:13:46 10° SE
YAOGAN 6 4.2 02:05:34 10° NE 02:08:58 39° ESE 02:12:22 10° S
Sich 1 Rocket 3.6 02:05:19 10° NNW 02:09:47 64° WSW 02:14:23 10° S
STARLINK-1071 4.2 02:07:04 11° WSW 02:11:02 56° SSE 02:15:10 10° E
NOSS 3-1 (A) 3.5 02:06:08 10° SW 02:12:47 79° SE 02:18:25 10° NE
Cosmos 2237 Rocket 4.3 02:08:21 10° NNE 02:13:18 31° ENE 02:18:17 10° SE
CZ-4B R/B 2.0 02:11:24 10° S 02:14:23 33° WSW 02:17:23 10° NW
CRYOSAT 2 4.4 02:10:07 10° N 02:14:59 58° W 02:19:55 10° SSW
STARLINK-1110 4.1 02:11:51 10° WSW 02:16:02 58° SSE 02:20:12 10° E
Cosmos 1371 Rocket 4.3 02:11:07 10° SSW 02:16:10 47° WNW 02:21:14 10° N
Okean O Rocket 2.0 02:12:57 10° N 02:17:15 43° W 02:21:36 10° SSW
Cosmos 2084 3.8 02:13:42 10° NNW 02:17:55 68° NE 02:22:12 10° SE
CZ-4B R/B 3.5 02:12:36 10° N 02:18:07 48° W 02:23:39 10° SSW
Cosmos 2151 Rocket 4.1 02:14:02 10° N 02:18:29 68° E 02:23:01 10° SSE
Okean 2 Rocket 3.1 02:14:00 10° N 02:18:34 84° W 02:23:12 10° S
Cosmos 2278 Rocket 2.8 02:14:15 10° SSW 02:19:56 62° ESE 02:25:34 10° NE
STARLINK-1124 4.1 02:16:49 10° WSW 02:21:01 61° SSE 02:25:11 10° ENE
Cosmos 1624 Rocket 4.2 02:15:58 10° SSW 02:21:05 48° WNW 02:26:05 10° N
Cosmos 1844 4.1 02:16:22 10° SW 02:21:43 41° WNW 02:26:57 10° N
PSLV R/B 4.3 02:18:23 10° SSE 02:22:37 73° ENE 02:26:49 10° N
Cosmos 2279 Rocket 4.3 02:18:00 10° NW 02:24:00 45° WSW 02:30:05 10° S
STARLINK-1122 4.0 02:21:47 10° WSW 02:26:00 64° SSE 02:30:11 10° ENE
STARLINK-1126 4.0 02:26:47 10° WSW 02:31:00 68° SSE 02:35:12 10° ENE
STARLINK-1118 2.8 02:30:00 13° W 02:31:08 23° NW 02:32:39 10° NNE
STARLINK-1066 2.9 02:28:24 10° WSW 02:31:35 88° NNW 02:34:44 10° ENE
STARLINK-1081 2.9 02:28:49 10° WSW 02:32:03 87° NNW 02:35:14 10° ENE
STARLINK-1070 2.9 02:29:17 10° WSW 02:32:29 86° NW 02:35:41 10° ENE
STARLINK-1069 2.9 02:29:46 10° WSW 02:32:57 86° NW 02:36:07 10° ENE
STARLINK-1085 2.9 02:30:12 10° WSW 02:33:23 85° NW 02:36:33 10° ENE
Cosmos 1743 4.3 02:31:00 10° WNW 02:33:47 18° WSW 02:36:35 10° SSW
STARLINK-1086 2.9 02:30:37 10° WSW 02:33:51 85° NNW 02:37:01 10° ENE
Meteor 1-21 4.4 02:28:24 10° SSW 02:33:54 51° W 02:39:22 10° NNW
Cosmos 1842 4.0 02:30:22 10° SSW 02:33:55 32° W 02:37:25 10° NNW
STARLINK-1095 2.9 02:31:05 10° WSW 02:34:18 84° NNW 02:37:29 10° ENE
STARLINK-1077 2.9 02:31:32 10° WSW 02:34:45 83° NNW 02:37:56 10° ENE
Meteor 2-9 Rocket 4.3 02:29:30 10° NNW 02:35:08 57° WSW 02:40:42 10° S
STARLINK-1075 2.9 02:31:59 10° WSW 02:35:11 83° NNW 02:38:22 10° ENE
STARLINK-1093 2.9 02:32:29 10° WSW 02:35:40 82° NNW 02:38:49 10° ENE
STARLINK-1082 3.9 02:31:45 10° WSW 02:36:00 71° SSE 02:40:12 10° ENE
STARLINK-1074 2.9 02:32:55 10° WSW 02:36:06 81° NNW 02:39:14 10° ENE
STARLINK-1087 2.9 02:33:19 10° WSW 02:36:32 81° NW 02:39:43 10° ENE
Cosmos 1300 Rocket 3.6 02:32:10 10° NNW 02:36:33 68° WSW 02:41:03 10° S
STARLINK-1088 2.9 02:33:47 10° WSW 02:37:00 80° NNW 02:40:11 10° ENE
STARLINK-1115 2.9 02:34:16 10° WSW 02:37:27 80° NNW 02:40:36 10° NE
STARLINK-1076 2.9 02:34:42 10° WSW 02:37:53 79° NNW 02:41:02 10° NE
STARLINK-1092 2.9 02:35:11 10° WSW 02:38:22 78° NNW 02:41:31 10° NE
STARLINK-1080 2.9 02:35:35 10° WSW 02:38:48 78° NNW 02:41:59 10° NE
STARLINK-1090 2.9 02:36:02 10° WSW 02:39:15 77° NNW 02:42:26 10° NE
ATLAS 2AS CENTAUR R/B 4.5 02:34:54 10° SW 02:39:19 19° S 02:43:55 10° SE
Cosmos 1975 Rocket 4.2 02:36:00 10° SW 02:39:26 22° W 02:42:51 10° NW
STARLINK-1089 2.9 02:36:30 10° WSW 02:39:41 77° NNW 02:42:52 10° NE
STARLINK-1107 2.9 02:36:56 10° WSW 02:40:09 76° NNW 02:43:20 10° NE
STARLINK-1100 3.8 02:36:45 10° WSW 02:40:59 75° SSE 02:45:12 10° ENE
SL-8 R/B 3.8 02:36:11 10° W 02:41:05 81° S 02:46:00 10° E
NOSS 3-1 (C) 3.7 02:37:17 10° SW 02:43:18 45° WNW 02:48:31 10° N
